TimeCST,TemperatureF,Dew PointF,Humidity,Sea Level PressureIn,VisibilityMPH,Wind Direction,Wind SpeedMPH,Gust SpeedMPH,PrecipitationIn,Events,Conditions,WindDirDegrees,DateUTC
12:15 AM,28.4,26.6,93,30.12,10.0,Calm,Calm,-,N/A,,Clear,0,2013-01-21 06:15:00
12:35 AM,28.4,26.6,93,30.13,10.0,Calm,Calm,-,N/A,,Clear,0,2013-01-21 06:35:00
12:55 AM,26.6,26.6,100,30.13,10.0,Calm,Calm,-,N/A,,Clear,0,2013-01-21 06:55:00
1:15 AM,26.6,26.6,100,30.13,10.0,Calm,Calm,-,N/A,,Clear,0,2013-01-21 07:15:00
1:35 AM,26.6,26.6,100,30.13,10.0,Calm,Calm,-,N/A,,Clear,0,2013-01-21 07:35:00
1:55 AM,26.6,26.6,100,30.13,10.0,Calm,Calm,-,N/A,,Clear,0,2013-01-21 07:55:00
2:15 AM,26.6,26.6,100,30.12,10.0,Calm,Calm,-,N/A,,Clear,0,2013-01-21 08:15:00
2:35 AM,26.6,24.8,93,30.12,10.0,Calm,Calm,-,N/A,,Clear,0,2013-01-21 08:35:00
2:55 AM,26.6,24.8,93,30.11,10.0,Calm,Calm,-,N/A,,Clear,0,2013-01-21 08:55:00
3:15 AM,26.6,24.8,93,30.10,10.0,Calm,Calm,-,N/A,,Clear,0,2013-01-21 09:15:00
3:35 AM,24.8,24.8,100,30.10,10.0,Calm,Calm,-,N/A,,Clear,0,2013-01-21 09:35:00
3:55 AM,24.8,24.8,100,30.10,10.0,Calm,Calm,-,N/A,,Clear,0,2013-01-21 09:55:00
4:15 AM,24.8,24.8,100,30.09,10.0,Calm,Calm,-,N/A,,Clear,0,2013-01-21 10:15:00
4:35 AM,24.8,24.8,100,30.09,10.0,Calm,Calm,-,N/A,,Clear,0,2013-01-21 10:35:00
4:55 AM,24.8,24.8,100,30.10,10.0,Calm,Calm,-,N/A,,Clear,0,2013-01-21 10:55:00
5:15 AM,24.8,23.0,93,30.10,10.0,Calm,Calm,-,N/A,,Clear,0,2013-01-21 11:15:00
5:35 AM,24.8,23.0,93,30.10,10.0,Calm,Calm,-,N/A,,Clear,0,2013-01-21 11:35:00
5:55 AM,24.8,23.0,93,30.10,10.0,Calm,Calm,-,N/A,,Clear,0,2013-01-21 11:55:00
6:15 AM,24.8,23.0,93,30.12,10.0,Calm,Calm,-,N/A,,Clear,0,2013-01-21 12:15:00
6:35 AM,24.8,23.0,93,30.12,10.0,Calm,Calm,-,N/A,,Clear,0,2013-01-21 12:35:00
6:55 AM,24.8,23.0,93,30.13,10.0,Calm,Calm,-,N/A,,Clear,0,2013-01-21 12:55:00
7:15 AM,24.8,23.0,93,30.13,10.0,Calm,Calm,-,N/A,,Clear,0,2013-01-21 13:15:00
7:35 AM,24.8,24.8,100,30.13,7.0,Calm,Calm,-,N/A,,Clear,0,2013-01-21 13:35:00
7:55 AM,26.6,24.8,93,30.14,7.0,Calm,Calm,-,N/A,,Clear,0,2013-01-21 13:55:00
8:15 AM,28.4,26.6,93,30.14,7.0,Calm,Calm,-,N/A,,Clear,0,2013-01-21 14:15:00
8:35 AM,32.0,30.2,93,30.14,10.0,Calm,Calm,-,N/A,,Clear,0,2013-01-21 14:35:00
8:55 AM,37.4,26.6,65,30.14,10.0,Calm,Calm,-,N/A,,Clear,0,2013-01-21 14:55:00
9:15 AM,37.4,23.0,56,30.15,10.0,Calm,Calm,-,N/A,,Clear,0,2013-01-21 15:15:00
9:35 AM,37.4,21.2,52,30.16,10.0,Calm,Calm,-,N/A,,Clear,0,2013-01-21 15:35:00
9:55 AM,39.2,19.4,45,30.16,10.0,NW,8.1,16.1,N/A,,Clear,310,2013-01-21 15:55:00
10:15 AM,39.2,19.4,45,30.16,10.0,West,5.8,-,N/A,,Clear,270,2013-01-21 16:15:00
10:35 AM,42.8,19.4,39,30.15,10.0,West,5.8,-,N/A,,Clear,270,2013-01-21 16:35:00
10:55 AM,42.8,17.6,36,30.15,10.0,West,8.1,-,N/A,,Clear,260,2013-01-21 16:55:00
11:15 AM,42.8,17.6,36,30.13,10.0,West,5.8,-,N/A,,Clear,270,2013-01-21 17:15:00
11:35 AM,42.8,17.6,36,30.13,10.0,West,9.2,-,N/A,,Clear,260,2013-01-21 17:35:00
11:55 AM,42.8,17.6,36,30.11,10.0,West,8.1,18.4,N/A,,Clear,260,2013-01-21 17:55:00
12:15 PM,44.6,17.6,34,30.10,10.0,West,12.7,17.3,N/A,,Clear,270,2013-01-21 18:15:00
12:35 PM,44.6,17.6,34,30.09,10.0,West,13.8,19.6,N/A,,Clear,280,2013-01-21 18:35:00
12:55 PM,44.6,17.6,34,30.08,10.0,WNW,8.1,18.4,N/A,,Clear,290,2013-01-21 18:55:00
1:15 PM,44.6,17.6,34,30.08,10.0,West,8.1,16.1,N/A,,Clear,270,2013-01-21 19:15:00
1:35 PM,46.4,19.4,34,30.08,10.0,West,8.1,-,N/A,,Clear,280,2013-01-21 19:35:00
1:55 PM,44.6,19.4,37,30.08,10.0,WNW,8.1,18.4,N/A,,Clear,290,2013-01-21 19:55:00
2:15 PM,44.6,19.4,37,30.08,10.0,West,9.2,-,N/A,,Clear,280,2013-01-21 20:15:00
2:35 PM,44.6,19.4,37,30.07,10.0,WSW,12.7,20.7,N/A,,Clear,250,2013-01-21 20:35:00
2:55 PM,44.6,19.4,37,30.08,10.0,West,8.1,18.4,N/A,,Clear,280,2013-01-21 20:55:00
3:15 PM,42.8,19.4,39,30.09,10.0,WNW,19.6,26.5,N/A,,Clear,290,2013-01-21 21:15:00
3:35 PM,42.8,17.6,36,30.09,10.0,WNW,6.9,-,N/A,,Clear,300,2013-01-21 21:35:00
3:55 PM,41.0,19.4,42,30.09,10.0,West,6.9,-,N/A,,Clear,280,2013-01-21 21:55:00
4:15 PM,39.2,17.6,42,30.09,10.0,NNW,6.9,-,N/A,,Clear,330,2013-01-21 22:15:00
4:35 PM,37.4,15.8,41,30.10,10.0,NNW,12.7,-,N/A,,Clear,330,2013-01-21 22:35:00
5:15 PM,35.6,15.8,44,30.11,10.0,NW,8.1,-,N/A,,Clear,320,2013-01-21 23:15:00
5:35 PM,35.6,15.8,44,30.11,10.0,NW,5.8,-,N/A,,Clear,320,2013-01-21 23:35:00
5:55 PM,33.8,14.0,44,30.12,10.0,NNW,6.9,-,N/A,,Clear,330,2013-01-21 23:55:00
6:15 PM,33.8,12.2,41,30.12,10.0,NW,4.6,9.2,N/A,,Clear,320,2013-01-22 00:15:00
6:55 PM,33.8,14.0,44,30.14,10.0,NW,6.9,-,N/A,,Clear,310,2013-01-22 00:55:00
7:15 PM,32.0,14.0,48,30.15,10.0,NW,8.1,-,N/A,,Clear,320,2013-01-22 01:15:00
7:35 PM,30.2,14.0,51,30.15,10.0,NNW,5.8,-,N/A,,Clear,330,2013-01-22 01:35:00
7:55 PM,30.2,12.2,47,30.15,10.0,NW,9.2,-,N/A,,Clear,320,2013-01-22 01:55:00
8:15 PM,30.2,12.2,47,30.17,10.0,NW,9.2,16.1,N/A,,Clear,320,2013-01-22 02:15:00
8:35 PM,28.4,10.4,47,30.17,10.0,NW,8.1,-,N/A,,Clear,310,2013-01-22 02:35:00
8:55 PM,28.4,10.4,47,30.18,10.0,NNW,3.5,-,N/A,,Clear,330,2013-01-22 02:55:00
9:15 PM,28.4,10.4,47,30.19,10.0,WNW,3.5,-,N/A,,Scattered Clouds,300,2013-01-22 03:15:00
9:35 PM,28.4,10.4,47,30.20,10.0,NW,5.8,-,N/A,,Scattered Clouds,320,2013-01-22 03:35:00
9:55 PM,26.6,10.4,51,30.20,10.0,NW,8.1,-,N/A,,Clear,310,2013-01-22 03:55:00
10:15 PM,26.6,8.6,47,30.20,10.0,West,8.1,-,N/A,,Clear,280,2013-01-22 04:15:00
10:35 PM,26.6,8.6,47,30.20,10.0,WNW,5.8,-,N/A,,Mostly Cloudy,290,2013-01-22 04:35:00
10:55 PM,26.6,8.6,47,30.20,10.0,WNW,8.1,20.7,N/A,,Scattered Clouds,300,2013-01-22 04:55:00
11:15 PM,26.6,8.6,47,30.21,10.0,NW,6.9,-,N/A,,Clear,310,2013-01-22 05:15:00
11:35 PM,24.8,8.6,50,30.20,10.0,NW,4.6,-,N/A,,Scattered Clouds,310,2013-01-22 05:35:00
11:55 PM,24.8,8.6,50,30.20,10.0,NNW,3.5,-,N/A,,Mostly Cloudy,330,2013-01-22 05:55:00